Wind_Speed
9 9 10 10 10 10 10 11 11 11 12 12 12 13 12 12 13 13 14 15 16 18 19 20 20 19 18 18 17 15 13 10 9 9 9 11 13 16 18 21 23 26 27
9 9 9 10 10 11 11 11 11 12 12 12 12 13 13 12 13 13 14 15 16 17 19 19 19 19 19 18 17 15 12 10 8 7 7 9 11 14 17 19 22 25 27
9 9 9 10 10 10 11 11 11 12 12 12 13 13 13 13 13 14 14 15 16 17 19 19 20 19 19 18 17 14 12 9 7 5 6 7 9 12 15 18 21 24 26
9 9 9 9 10 10 11 11 11 12 12 12 13 13 13 13 13 14 14 15 16 17 18 19 19 19 19 18 17 15 12 10 7 5 5 5 7 10 13 17 20 22 26
8 9 9 10 10 11 11 11 12 12 12 12 13 13 13 13 13 14 15 15 15 16 17 18 19 19 19 18 16 15 13 10 8 6 5 5 6 8 11 14 18 20 24
8 8 8 9 10 10 11 11 12 12 12 13 13 14 14 14 14 14 15 15 15 16 17 18 19 19 18 17 16 15 13 11 8 6 5 4 5 6 8 11 15 18 21
8 9 9 9 9 10 10 11 12 12 12 13 13 14 14 14 14 15 15 15 16 16 17 17 18 18 17 17 16 15 13 11 9 7 6 4 4 5 7 9 12 16 20
8 9 10 10 10 10 11 11 12 12 13 13 14 14 15 15 15 15 15 16 16 16 16 17 18 17 16 16 16 15 13 11 10 8 6 5 4 4 6 8 11 14 17
8 9 10 10 10 10 11 11 12 13 13 14 14 15 15 16 16 16 17 17 16 16 16 17 17 17 16 16 15 14 13 12 10 9 7 6 5 4 6 7 9 12 15
8 9 9 9 10 10 11 12 13 13 14 14 15 15 16 16 17 18 18 18 17 17 17 17 17 17 16 16 15 14 13 12 11 9 8 7 5 5 5 7 9 11 13
8 9 9 10 10 11 12 13 14 14 14 15 16 16 16 17 18 18 19 19 18 18 18 17 17 17 16 16 15 14 14 12 11 10 9 7 6 5 6 7 9 11 12
8 10 11 11 11 12 13 13 14 15 15 16 16 17 17 18 19 19 20 20 20 19 19 19 18 17 17 16 16 15 14 13 11 11 10 8 8 7 6 7 9 10 12
9 10 11 12 12 13 14 15 15 16 17 17 17 18 19 19 20 20 21 21 21 21 21 20 20 19 18 17 17 16 15 14 13 11 10 9 9 8 8 8 9 11 13
11 12 12 13 14 15 15 16 17 18 18 19 20 20 21 21 21 22 22 23 23 23 23 22 22 21 20 19 18 17 16 15 14 13 12 11 10 9 9 9 10 12 13
12 13 14 15 16 16 17 18 19 20 20 21 22 23 24 24 24 24 24 25 25 25 25 25 24 23 22 21 21 20 18 17 16 15 13 12 11 11 11 11 11 12 13
15 16 16 17 18 19 20 21 22 23 23 24 24 25 26 27 27 27 27 27 27 27 27 27 27 26 24 24 23 22 21 20 18 17 16 15 14 13 13 13 13 13 14
17 18 19 19 20 21 22 23 24 26 26 27 28 29 29 30 30 31 30 30 30 30 30 30 30 29 28 26 25 25 24 22 21 20 19 18 16 16 15 14 14 14 15
19 20 21 22 23 24 25 26 27 28 29 30 31 32 33 34 34 34 34 34 33 33 33 33 32 32 31 30 29 28 27 25 24 23 22 21 20 19 17 16 16 16 16
22 23 24 25 26 27 29 30 31 32 32 33 34 35 36 37 37 37 38 37 37 36 36 36 35 35 34 33 32 31 30 28 27 26 24 23 23 22 21 20 19 18 18
25 26 27 28 30 31 32 33 34 35 36 37 38 39 40 40 40 41 41 40 40 40 39 39 38 37 37 36 35 35 33 32 30 29 27 26 25 25 24 22 21 20 20
28 29 30 31 33 34 35 36 37 38 39 40 41 42 43 43 44 44 44 44 44 43 43 43 42 41 40 39 38 37 36 35 34 32 31 29 28 27 26 25 24 23 23
30 31 33 34 36 37 39 40 41 41 42 44 45 46 46 47 47 47 47 47 47 47 47 46 46 44 43 42 41 41 39 38 37 35 34 33 31 30 29 28 27 26 26
33 35 36 38 39 41 42 43 44 45 46 47 48 49 50 51 51 51 51 51 51 50 49 48 47 46 45 44 44 43 42 41 40 39 37 36 34 34 32 31 30 29 28
37 38 40 42 43 44 46 47 48 49 51 51 52 53 54 55 55 54 54 53 52 52 51 50 49 48 47 46 46 46 45 44 43 42 40 39 38 36 35 34 32 31 31
41 42 44 45 46 48 49 51 52 54 55 56 56 57 58 58 57 56 55 55 54 53 52 51 50 50 48 47 49 49 48 47 46 45 44 42 41 39 38 36 35 33 32
44 46 47 49 50 52 53 55 56 57 58 59 59 60 61 60 59 58 56 55 54 53 53 53 52 51 50 49 50 50 51 50 49 48 46 45 43 42 40 39 37 36 34
Wind_Direction
303 303 303 303 302 301 298 294 292 292 295 298 304 309 312 316 320 324 331 337 342 345 345 345 345 344 343 341 339 335 329 319 300 284 269 254 241 230 224 222 220 217 214
307 305 304 303 303 301 299 296 293 291 292 296 302 308 311 314 319 324 330 336 341 344 347 349 349 348 348 346 344 340 336 328 311 293 272 254 241 231 226 223 217 215 214
310 305 301 304 303 300 298 296 294 292 292 295 300 306 310 313 318 324 329 334 340 343 346 349 349 350 350 350 349 347 343 337 324 303 279 258 246 233 227 222 218 215 213
306 305 306 307 305 303 302 300 297 294 292 295 299 304 307 310 316 322 327 332 337 342 346 348 349 350 351 352 353 353 349 344 334 316 291 268 248 237 229 224 219 214 213
310 306 303 303 304 304 303 303 300 297 295 296 300 304 306 309 313 319 325 329 334 338 343 347 348 349 351 352 353 355 353 349 341 328 310 281 253 241 233 226 218 216 211
313 309 305 304 304 305 305 304 303 301 298 298 302 304 305 307 311 316 322 327 332 335 340 343 346 347 350 353 354 355 356 353 348 335 322 301 263 246 236 227 218 213 210
315 310 308 307 306 305 306 307 306 303 301 300 303 306 307 307 309 313 318 322 328 333 337 341 343 346 348 351 354 356 356 356 351 342 330 315 278 247 233 222 216 210 209
314 313 311 309 308 308 308 308 308 305 303 302 302 305 307 308 310 312 314 318 322 327 332 337 341 343 345 347 350 353 353 351 349 345 337 321 290 261 231 222 215 209 208
316 316 315 316 315 314 313 312 311 308 305 303 302 303 305 306 308 310 311 313 317 321 325 330 335 338 340 342 344 346 348 347 346 343 339 325 301 275 240 224 215 210 210
322 322 321 319 318 317 316 315 314 311 307 305 303 302 304 305 306 307 308 310 312 315 319 323 327 330 333 334 337 340 342 343 340 337 334 324 310 283 247 230 220 219 219
325 326 325 322 320 319 317 317 317 315 311 307 305 303 303 304 305 306 306 307 307 309 313 315 319 321 324 326 327 329 332 333 332 330 327 321 311 289 260 242 230 224 220
325 326 325 323 322 320 318 317 317 318 316 313 310 308 306 305 304 304 305 305 305 304 306 308 310 312 315 317 319 320 323 325 324 322 320 313 304 294 274 254 239 230 225
321 321 321 320 317 316 316 316 315 315 315 314 312 310 308 307 306 304 304 303 303 302 301 302 303 304 306 308 310 312 314 315 315 313 312 310 301 292 280 260 244 237 233
315 316 315 314 313 313 314 314 313 313 312 312 311 310 308 307 305 304 303 303 302 301 300 298 297 297 298 299 300 302 304 304 304 303 301 300 296 288 279 265 252 243 238
309 311 311 311 311 311 312 312 312 311 310 309 309 308 307 306 305 303 302 301 301 300 298 296 294 293 292 292 292 293 294 295 295 293 291 291 290 284 276 268 258 249 242
305 307 308 308 309 310 310 311 311 310 309 308 307 306 306 305 304 302 300 299 298 296 295 294 291 289 288 287 287 286 286 286 287 286 284 283 281 278 273 267 260 253 245
303 305 306 307 307 308 308 308 308 308 307 306 305 305 304 303 303 301 299 298 296 294 292 291 289 286 284 283 282 282 281 280 279 279 278 277 276 272 269 264 259 255 248
302 303 304 305 306 306 306 307 306 306 305 304 304 303 302 301 300 299 298 297 295 293 291 289 287 284 281 279 278 277 276 275 273 272 272 272 271 269 265 262 259 255 252
301 302 303 305 305 306 306 306 306 305 304 304 303 302 301 300 299 298 297 295 293 291 289 287 285 282 279 276 274 273 272 271 269 268 267 266 267 265 263 260 258 255 252
301 302 304 305 306 306 306 305 305 305 304 304 303 301 300 299 298 297 295 293 290 288 287 284 282 280 277 274 271 269 268 267 266 265 263 262 263 262 261 259 257 255 252
302 303 304 305 306 306 306 305 304 304 303 303 303 302 300 299 297 296 294 292 289 287 285 283 280 277 274 271 268 266 265 264 263 262 260 259 259 259 258 257 255 254 253
301 302 304 305 306 306 306 305 305 304 303 303 302 301 300 298 297 295 293 291 288 286 284 282 279 276 272 268 266 264 262 260 259 259 258 256 255 255 255 254 253 252 252
301 302 303 304 305 306 305 305 305 304 304 303 301 301 300 298 296 294 292 290 288 286 284 281 278 275 270 266 262 261 259 258 257 256 255 254 253 252 252 252 252 252 251
299 301 302 303 305 305 305 305 304 304 303 302 301 300 299 298 295 293 291 289 288 286 284 280 277 274 269 264 261 258 256 255 255 254 253 252 250 250 250 250 250 251 251
298 300 301 303 304 305 305 305 304 304 303 303 302 301 300 298 295 292 290 288 286 285 283 280 277 273 269 264 260 256 254 253 252 252 251 251 249 248 248 249 249 249 250
298 300 302 303 305 305 305 304 304 303 303 303 303 302 301 298 295 292 289 287 285 283 282 279 276 272 268 263 258 255 252 251 249 249 249 249 248 247 246 247 247 247 248
Height
5871 5870 5870 5869 5868 5868 5867 5866 5866 5865 5864 5863 5861 5859 5857 5855 5853 5850 5848 5844 5841 5838 5834 5830 5826 5822 5818 5814 5810 5807 5804 5802 5801 5800 5800 5800 5800 5802 5804 5807 5810 5813 5817
5869 5869 5868 5868 5867 5866 5866 5865 5864 5863 5862 5861 5859 5858 5856 5853 5851 5849 5846 5843 5840 5836 5833 5829 5825 5820 5816 5812 5809 5805 5803 5800 5799 5798 5798 5798 5799 5799 5801 5803 5806 5810 5813
5868 5868 5867 5866 5865 5865 5864 5863 5862 5861 5860 5859 5858 5856 5854 5852 5850 5847 5845 5842 5838 5835 5831 5828 5824 5820 5815 5812 5808 5804 5802 5799 5798 5797 5797 5796 5796 5797 5799 5800 5803 5806 5810
5867 5866 5865 5865 5864 5863 5862 5861 5860 5859 5858 5857 5856 5854 5852 5850 5848 5846 5843 5840 5837 5834 5830 5827 5823 5819 5815 5811 5807 5804 5801 5799 5797 5796 5795 5795 5795 5795 5796 5798 5800 5802 5806
5865 5864 5864 5863 5862 5861 5860 5859 5858 5857 5856 5855 5854 5852 5850 5848 5846 5844 5842 5839 5836 5833 5830 5826 5822 5818 5814 5811 5807 5804 5801 5799 5797 5796 5795 5794 5793 5794 5794 5795 5797 5799 5803
5863 5863 5862 5861 5860 5860 5858 5857 5856 5855 5854 5853 5851 5850 5848 5847 5845 5842 5840 5837 5835 5832 5829 5825 5822 5818 5814 5811 5807 5804 5802 5799 5797 5796 5794 5793 5793 5793 5793 5793 5795 5797 5800
5862 5861 5860 5859 5859 5858 5857 5855 5854 5853 5852 5851 5849 5848 5846 5845 5843 5841 5838 5836 5833 5831 5828 5824 5821 5818 5814 5811 5808 5805 5802 5800 5798 5796 5794 5793 5792 5792 5792 5792 5793 5795 5798
5860 5859 5858 5857 5857 5856 5855 5853 5852 5851 5850 5848 5847 5846 5844 5843 5841 5839 5836 5834 5832 5829 5826 5823 5820 5817 5814 5811 5808 5805 5802 5800 5798 5796 5794 5793 5792 5791 5791 5792 5793 5794 5796
5859 5858 5857 5856 5855 5854 5852 5851 5850 5848 5847 5846 5844 5843 5842 5840 5838 5836 5834 5832 5830 5828 5825 5822 5819 5817 5814 5811 5808 5805 5802 5800 5798 5796 5794 5793 5792 5791 5790 5791 5792 5794 5795
5857 5856 5855 5854 5853 5852 5850 5849 5848 5846 5845 5843 5842 5840 5839 5837 5836 5834 5832 5830 5828 5826 5823 5821 5818 5816 5813 5810 5807 5805 5802 5800 5798 5796 5794 5793 5791 5790 5790 5790 5790 5792 5793
5855 5854 5853 5852 5851 5849 5848 5847 5845 5844 5842 5840 5839 5837 5836 5834 5832 5831 5829 5827 5825 5823 5821 5819 5817 5814 5812 5809 5807 5804 5801 5799 5797 5795 5793 5792 5791 5789 5789 5789 5789 5790 5791
5853 5852 5851 5850 5849 5847 5846 5844 5843 5841 5839 5838 5836 5834 5832 5831 5829 5827 5826 5824 5822 5820 5818 5816 5814 5812 5810 5807 5805 5803 5800 5798 5796 5794 5792 5791 5789 5788 5788 5787 5788 5788 5789
5851 5850 5849 5847 5846 5845 5843 5842 5840 5838 5837 5835 5833 5831 5829 5827 5825 5823 5822 5820 5818 5816 5814 5812 5811 5809 5807 5805 5803 5801 5798 5796 5794 5792 5791 5789 5788 5787 5786 5785 5785 5786 5786
5849 5847 5846 5845 5843 5842 5840 5838 5837 5835 5833 5831 5829 5827 5825 5823 5821 5819 5817 5816 5814 5812 5810 5808 5806 5805 5803 5801 5799 5798 5796 5794 5792 5790 5788 5787 5786 5785 5784 5783 5783 5783 5783
5846 5844 5843 5841 5840 5838 5836 5834 5833 5831 5829 5827 5825 5823 5820 5819 5817 5814 5813 5811 5809 5807 5805 5803 5801 5800 5798 5797 5795 5794 5792 5790 5789 5787 5786 5784 5783 5782 5781 5780 5780 5779 5780
5842 5841 5839 5837 5836 5834 5832 5830 5828 5826 5824 5822 5819 5817 5815 5813 5811 5809 5806 5804 5802 5801 5799 5797 5795 5794 5792 5791 5790 5788 5787 5786 5784 5783 5782 5781 5780 5778 5777 5776 5776 5776 5776
5838 5836 5835 5833 5831 5829 5827 5825 5822 5820 5818 5815 5813 5811 5808 5806 5804 5801 5799 5797 5795 5793 5791 5789 5788 5787 5786 5784 5783 5782 5781 5780 5779 5778 5777 5776 5775 5774 5773 5772 5772 5772 5772
5833 5831 5829 5827 5825 5823 5821 5818 5816 5813 5811 5808 5806 5803 5801 5798 5796 5793 5791 5788 5786 5784 5782 5781 5779 5778 5777 5776 5775 5774 5773 5773 5772 5772 5771 5771 5770 5769 5769 5768 5768 5767 5768
5827 5825 5823 5821 5819 5816 5814 5811 5808 5805 5802 5799 5797 5794 5791 5789 5786 5783 5781 5778 5776 5773 5772 5770 5769 5768 5767 5767 5766 5765 5765 5765 5764 5764 5764 5764 5764 5764 5763 5763 5762 5762 5763
5821 5819 5816 5814 5811 5808 5805 5802 5799 5796 5793 5790 5787 5784 5781 5778 5775 5772 5769 5766 5764 5762 5760 5758 5757 5756 5755 5755 5755 5755 5755 5755 5756 5756 5756 5756 5756 5756 5756 5756 5756 5756 5757
5813 5811 5808 5805 5802 5799 5796 5792 5789 5786 5783 5779 5776 5772 5769 5766 5763 5760 5757 5754 5751 5749 5747 5745 5744 5742 5742 5742 5742 5743 5743 5744 5745 5746 5746 5747 5748 5748 5748 5749 5749 5750 5750
5804 5802 5799 5796 5792 5789 5785 5782 5778 5775 5771 5767 5763 5760 5756 5752 5748 5745 5742 5739 5736 5733 5731 5729 5728 5727 5727 5728 5729 5729 5731 5732 5733 5735 5736 5737 5738 5738 5739 5740 5742 5742 5742
5795 5792 5789 5786 5782 5778 5774 5770 5766 5762 5758 5753 5749 5745 5741 5736 5732 5729 5725 5722 5718 5716 5713 5712 5711 5710 5710 5711 5713 5715 5716 5718 5719 5722 5724 5725 5727 5728 5729 5731 5732 5733 5734
5785 5782 5778 5774 5770 5766 5761 5757 5752 5748 5743 5738 5734 5729 5724 5719 5715 5711 5707 5703 5700 5697 5695 5693 5693 5692 5693 5694 5696 5698 5700 5703 5705 5708 5710 5712 5714 5716 5718 5720 5722 5723 5725
5773 5770 5766 5762 5757 5752 5747 5742 5737 5732 5727 5722 5716 5711 5705 5701 5696 5692 5688 5684 5682 5678 5676 5675 5674 5674 5675 5677 5678 5680 5683 5687 5690 5692 5695 5698 5701 5704 5706 5709 5711 5713 5715
5761 5757 5752 5748 5743 5737 5732 5726 5721 5715 5709 5704 5698 5692 5686 5680 5675 5671 5669 5665 5662 5660 5657 5655 5654 5654 5655 5657 5658 5661 5665 5669 5672 5676 5680 5684 5688 5691 5694 5697 5700 5702 5704